This demonstration page uses our WeatherBlox Daily Observations layout. Learn more.

Left ArrowRight Arrow

39.12711, -84.51439

Hourly Observations for May 5, 2018

Temp ( °F °C ) Dew Point ( °F °C ) Humidity (%) Winds ( mph kmh ) Pressure ( in mb ) Visibility ( mi km ) Precip ( " mm )
12:06 am 00:06 Mostly Cloudy with Mist and Fog 62 16.7 62 16.7 100 100 Calm 30.06 1018 2 2 0.00 0.00
12:16 am 00:16 Mostly Cloudy with Fog 62 16.7 62 16.7 100 100 Calm 30.06 1018 1 1 0.00 0.00
12:30 am 00:30 Cloudy with Mist and Fog 63 17.2 63 17.2 100 100 N 3 6 30.06 1018 3 4 0.00 0.00
12:37 am 00:37 Cloudy with Mist and Fog 62 16.7 62 16.7 100 100 Calm 30.06 1018 4 6 0.00 0.00
12:46 am 00:46 Cloudy with Mist and Fog 62 16.7 62 16.7 100 100 NE 3 6 30.06 1018 2 3 0.00 0.00
12:53 am 00:53 Mostly Cloudy with Mist and Fog 62 16.7 62 16.7 100 100 NE 3 6 30.07 1018 3 5 0.00 0.00
1:14 am 01:14 Mostly Clear with Mist and Fog 62 16.7 62 16.7 100 100 NE 3 6 30.06 1018 2 3 0.00 0.00
1:23 am 01:23 Clear with Mist and Fog 61 16.1 61 16.1 100 100 NE 5 7 30.06 1018 1 1 0.00 0.00
1:26 am 01:26 Clear with Mist and Fog 61 16.1 61 16.1 100 100 NE 5 7 30.06 1018 2 3 0.00 0.00
1:34 am 01:34 Clear with Mist and Fog 61 16.1 61 16.1 100 100 ENE 3 6 30.06 1018 4 6 0.00 0.00
1:53 am 01:53 Clear with Mist and Fog 60 15.6 60 15.6 100 100 Calm 30.07 1018 3 5 0.00 0.00
2:00 am 02:00 Clear with Mist and Fog 60 15.6 60 15.6 100 100 Calm 30.06 1018 3 4 0.00 0.00
2:07 am 02:07 Clear with Mist and Fog 60 15.6 60 15.6 100 100 Calm 30.06 1018 5 8 0.00 0.00
2:18 am 02:18 Mostly Clear with Mist and Fog 60 15.6 60 15.6 100 100 Calm 30.06 1018 2 2 0.00 0.00
2:21 am 02:21 Mostly Cloudy with Mist and Fog 60 15.6 60 15.6 100 100 Calm 30.03 1017 1 1 0.00 0.00
2:28 am 02:28 Mostly Clear with Mist and Fog 59 15 59 15 100 100 N 3 6 30.03 1017 1 2 0.00 0.00
2:30 am 02:30 Mostly Clear with Mist and Fog 59 15 59 15 100 100 Calm 30.03 1017 3 5 0.00 0.00
2:43 am 02:43 Mostly Cloudy with Mist and Fog 59 15 59 15 100 100 Calm 30.03 1017 1 1 0.00 0.00
2:53 am 02:53 Mostly Cloudy with Fog 58 14.4 58 14.4 100 100 Calm 30.06 1018 0 0 0.00 0.00
3:02 am 03:02 Mostly Cloudy with Mist and Fog 59 15 59 15 100 100 Calm 30.09 1019 1 2 0.00 0.00
3:05 am 03:05 Mostly Clear with Mist and Fog 58 14.4 58 14.4 100 100 Calm 30.09 1019 2 3 0.00 0.00
3:12 am 03:12 Mostly Clear with Mist and Fog 57 13.9 57 13.9 100 100 Calm 30.09 1019 5 8 0.00 0.00
3:21 am 03:21 Mostly Clear with Mist and Fog 58 14.4 58 14.4 100 100 Calm 30.09 1019 1 1 0.00 0.00
3:28 am 03:28 Mostly Clear with Mist and Fog 58 14.4 58 14.4 100 100 Calm 30.06 1018 2 3 0.00 0.00
3:35 am 03:35 Clear with Mist and Fog 59 15 59 15 100 100 Calm 30.03 1017 6 10 0.00 0.00
3:53 am 03:53 Clear with Mist and Fog 57 13.9 57 13.9 100 100 Calm 30.06 1018 5 8 0.00 0.00
3:57 am 03:57 Mostly Cloudy with Mist and Fog 58 14.4 58 14.4 100 100 Calm 30.06 1018 1 2 0.00 0.00
4:09 am 04:09 Clear with Mist and Fog 58 14.4 58 14.4 100 100 Calm 30.06 1018 1 1 0.00 0.00
4:14 am 04:14 Mostly Cloudy with Fog 57 13.9 57 13.9 100 100 Calm 30.06 1018 0 0 0.00 0.00
4:24 am 04:24 Clear with Fog 58 14.4 58 14.4 100 100 Calm 30.06 1018 1 1 0.00 0.00
4:38 am 04:38 Clear with Mist and Fog 58 14.4 58 14.4 100 100 Calm 30.06 1018 2 3 0.00 0.00
4:51 am 04:51 Clear with Mist and Fog 55 13 55 13 100 100 Calm 30.06 1018 5 8 0.00 0.00
4:53 am 04:53 Clear with Mist and Fog 55 12.8 55 12.8 100 100 Calm 30.06 1018 5 8 0.00 0.00
4:59 am 04:59 Clear with Mist and Fog 56 13.3 56 13.3 100 100 Calm 30.06 1018 1 1 0.00 0.00
5:16 am 05:16 Mostly Cloudy with Fog 57 13.9 57 13.9 100 100 Calm 30.06 1018 1 1 0.00 0.00
5:23 am 05:23 Mostly Clear with Mist and Fog 57 13.9 57 13.9 100 100 NNW 3 6 30.09 1019 2 2 0.00 0.00
5:31 am 05:31 Mostly Clear 58 14.4 58 14.4 100 100 Calm 30.09 1019 10 16 0.00 0.00
5:40 am 05:40 Mostly Clear with Mist and Fog 56 13.3 56 13.3 100 100 Calm 30.06 1018 2 2 0.00 0.00
5:51 am 05:51 Clear with Mist and Fog 57 14 57 14 100 100 N 3 6 30.09 1019 3 5 0.00 0.00
5:53 am 05:53 Clear with Mist and Fog 57 13.9 57 13.9 100 100 N 3 6 30.07 1018 5 8 0.00 0.00
6:53 am 06:53 Partly Cloudy 58 14.4 58 14.4 100 100 NNE 3 6 30.09 1019 10 16 0.00 0.00
7:53 am 07:53 Mostly Sunny 59 15 58 14.4 96 96 Calm 30.09 1019 10 16 0.00 0.00
8:53 am 08:53 Mostly Cloudy 60 15.6 57 13.9 90 90 ENE 5 7 30.09 1019 10 16 0.00 0.00
9:53 am 09:53 Partly Cloudy 62 16.7 57 13.9 84 84 N 6 9 30.08 1019 10 16 0.00 0.00
10:53 am 10:53 Cloudy with Light Rain 63 17.2 58 14.4 84 84 NNW 6 9 30.08 1019 10 16 0.00 0.03
11:53 am 11:53 Mostly Cloudy 65 18.3 57 13.9 76 76 Calm 30.08 1019 10 16 0.00 0.03
12:53 pm 12:53 Cloudy with Light Rain 64 17.8 57 13.9 78 78 Calm 30.07 1018 10 16 0.00 0.03
1:53 pm 13:53 Cloudy with Light Rain 64 17.8 60 15.6 87 87 Calm 30.06 1018 10 16 0.02 0.51
2:37 pm 14:37 Cloudy with Light Rain 64 17.8 61 16.1 90 90 S 5 7 30.03 1017 10 16 0.01 0.25
2:53 pm 14:53 Cloudy 62 16.7 61 16.1 96 96 WSW 6 9 30.06 1018 10 16 0.01 0.25
3:53 pm 15:53 Cloudy with Light Rain 63 17.2 61 16.1 93 93 ENE 3 6 30.04 1017 8 13 0.01 0.25
4:19 pm 16:19 Cloudy with Light Rain 63 17.2 61 16.1 93 93 Calm 30.03 1017 8 13 0.01 0.25
4:53 pm 16:53 Cloudy with Light Rain 62 16.7 61 16.1 96 96 E 5 7 30.04 1017 5 8 0.05 1.27
5:17 pm 17:17 Cloudy with Light Rain 62 16.7 61 16.1 96 96 ESE 9 15 30.00 1016 7 11 0.02 0.51
5:53 pm 17:53 Cloudy with Light Rain 62 16.7 61 16.1 96 96 Calm 30.02 1017 9 14 0.04 1.02
6:24 pm 18:24 Cloudy with Light Rain 62 16.7 61 16.1 96 96 N 5 7 30.00 1016 6 10 0.02 0.51
6:35 pm 18:35 Cloudy with Light Rain 62 16.7 61 16.1 96 96 NNE 3 6 30.00 1016 6 10 0.03 0.76
6:53 pm 18:53 Cloudy with Light Rain 62 16.7 61 16.1 96 96 NNE 3 6 30.01 1016 8 13 0.03 0.76
7:53 pm 19:53 Cloudy 61 16.1 61 16.1 100 100 E 6 9 29.99 1016 9 14 0.01 0.25
8:48 pm 20:48 Cloudy 61 16 59 15 94 94 NNE 5 7 29.97 1015 10 16 0.00 0.00
8:53 pm 20:53 Mostly Cloudy 60 15.6 59 15 96 96 NE 6 9 30.00 1016 10 16 0.00 0.00
9:53 pm 21:53 Mostly Clear 60 15.6 59 15 96 96 Calm 30.01 1016 10 16 0.00 0.00
10:53 pm 22:53 Partly Cloudy 59 15 59 15 100 100 Calm 30.02 1017 7 11 0.00 0.00
11:53 pm 23:53 Cloudy 59 15 57 13.9 93 93 NNE 5 7 29.99 1016 10 16 0.00 0.00

Powered by AerisWeather